Flag for Moldova Weather past 2 weeks in Tiraspol, Moldova

Now
43 °F

Fog.


Feels Like: 36 °F
Forecast: 39 / 45 °F
Wind: 12 mph from Southeast

Location: Chisinau International Airport

Current Time: Mar 2, 2015 at 11:41:46 PM

Latest Report: Mar 2, 2015 at 11:00 PM


Visibility: 2 mi

Pressure: 29.80 "Hg

Humidity: 87%

Dew point: 39 °F

Location of TiraspolLocation

Historic Weather in Tiraspol — Graph

°F

Tiraspol temperature yesterday

Maximum temperature yesterday: 43 °F (at 2:30 PM)
Minimum temperature yesterday: 37 °F (at 3:30 AM)
Average temperature yesterday: 41 °F

Past Weeks' High & Low Weather Summary

 TemperatureHumidityPressure
High55 °F (Feb 27, 3:30 PM)93% (Feb 15, 11:00 PM)30.72 "Hg (Feb 15, 11:00 PM)
Low14 °F (Feb 17, 4:00 AM)25% (Feb 18, 4:30 PM)29.80 "Hg (Feb 24, 2:00 PM)
Average38 °F73%30.13 "Hg
* Reported Feb 15 10:00 PM — Mar 2 10:30 PM, Tiraspol, Weather by CustomWeather, © 2015

Note: Actual official high and low records may vary slightly from our data, if they occured in-between our weather recording intervals... More about our weather records

Advertising

Tiraspol weather history for previous 24 hours

 ConditionsComfort  
Time TempWeatherWind HumidityBarometerVisibility
10:30 PM
Mon, Mar 2
43 °FFog.10 mph87%29.80 "Hg2 mi
10:00 PM45 °FFog.10 mph81%29.80 "Hg2 mi
9:30 PM45 °FFog.9 mph87%29.83 "Hg2 mi
9:00 PM45 °FFog.8 mph87%29.83 "Hg2 mi
8:30 PM45 °FFog.9 mph87%29.83 "Hg2 mi
8:00 PM45 °FFog.12 mph81%29.83 "Hg3 mi
7:30 PM45 °FFog.9 mph81%29.83 "Hg2 mi
7:00 PM46 °FFog.8 mph76%29.83 "Hg2 mi
6:30 PM46 °FPassing clouds.8 mph76%29.83 "HgN/A
6:00 PM46 °FPassing clouds.9 mph76%29.83 "HgN/A
5:30 PM48 °FPartly sunny.8 mph71%29.83 "HgN/A
5:00 PM48 °FPartly sunny.10 mph71%29.80 "HgN/A
4:30 PM48 °FPartly sunny.7 mph71%29.83 "HgN/A
4:00 PM48 °FPartly sunny.10 mph71%29.83 "HgN/A
3:30 PM48 °FPartly sunny.9 mph71%29.83 "HgN/A
3:00 PM48 °FPartly sunny.12 mph71%29.86 "HgN/A
2:30 PM48 °FPartly sunny.8 mph71%29.86 "HgN/A
2:00 PM46 °FPartly sunny.10 mph76%29.86 "HgN/A
1:30 PM46 °FOvercast.12 mph76%29.86 "HgN/A
1:00 PM46 °FOvercast.12 mph76%29.86 "Hg6 mi
12:30 PM45 °FLow clouds.10 mph76%29.89 "Hg5 mi
12:00 PM45 °FLow clouds.9 mph76%29.89 "Hg4 mi
11:30 AM43 °FLow clouds.12 mph81%29.92 "Hg4 mi
11:00 AM43 °FLow clouds.10 mph81%29.92 "Hg4 mi
10:30 AM43 °FFog.12 mph81%29.92 "Hg3 mi
10:00 AM43 °FFog.13 mph81%29.92 "Hg3 mi
9:30 AM43 °FFog.10 mph81%29.92 "Hg3 mi
9:00 AM43 °FFog.12 mph81%29.92 "Hg3 mi
8:30 AM41 °FFog.12 mph87%29.92 "Hg3 mi
8:00 AM41 °FFog.8 mph87%29.92 "Hg2 mi
7:30 AM41 °FFog.9 mph87%29.92 "Hg2 mi
7:00 AM41 °FFog.9 mph87%29.92 "Hg2 mi
6:30 AM41 °FFog.9 mph87%29.92 "Hg2 mi
6:00 AM41 °FFog.7 mph87%29.92 "Hg3 mi
5:30 AM41 °FFog.13 mph87%29.92 "Hg3 mi
5:00 AM41 °FFog.12 mph87%29.92 "Hg3 mi
4:30 AM41 °FFog.14 mph87%29.92 "Hg3 mi
4:00 AM41 °FDrizzle. Fog.12 mph87%29.95 "Hg2 mi
3:30 AM41 °FDrizzle. Fog.13 mph87%29.95 "Hg2 mi
3:00 AM41 °FDrizzle. Fog.13 mph87%29.95 "Hg2 mi
2:30 AM41 °FDrizzle. Fog.15 mph87%29.98 "Hg2 mi
2:00 AM41 °FDrizzle. Fog.13 mph87%29.98 "Hg2 mi
1:30 AM41 °FDrizzle. Fog.13 mph87%29.98 "Hg2 mi
1:00 AM41 °FFog.12 mph87%29.98 "Hg2 mi
12:30 AM41 °FFog.12 mph87%29.98 "Hg3 mi
12:00 AM41 °FFog.13 mph87%30.01 "Hg2 mi
11:30 PM
Sun, Mar 1
41 °FDrizzle. Fog.14 mph87%30.01 "Hg2 mi
11:00 PM41 °FDrizzle. Fog.12 mph87%30.01 "Hg2 mi
Weather by CustomWeather, © 2015

See weather overviewHow to use our weather pages